Бекдаш

Туркменистан     41°32′23″N   52°34′12″E
В апреле 2022 года жителям России запретили посещать сайт meteo.paraplan.net по решению Генеральной прокуратуры. Аудитория сайта уменьшилась в 10 раз. Владельцы сайта не видят смысла в поддержке погодного сервера в таких условиях. Сайт будет закрыт в октябре.
темп.,
°C
ветер,
м/с
пор.,
м/с
влажн.,
%
обл.,
%
осадки,
мм/ч
давл.,
гПа
погр.,
м
6 октября, чт
чт623:00+22вюв915360 0.0 1021269
02:00+20в814400 0.0 1021291
05:00+19в8123915 0.0 1021328
08:00+18в8114090 0.0 1021286
11:00+21вюв693887 0.0 1022248
14:00+23юв333997 0.0 102014
17:00+20сз785858 0.0 1019168
20:00+20ссз8106186 0.0 1020178
7 октября, пт
пт723:00+20с810703 0.0 1021299
02:00+20ссз68785 0.0 1020299
05:00+20с78788 0.0 1020374
08:00+19с10115672 0.0 1021443
11:00+20ссв810567 0.0 1023559
14:00+20ссз910610 0.0 1022276
17:00+20ссз1011610 0.0 1022357
20:00+19ссз910690 0.0 1023383
8 октября, сб
сб823:00+19с89710 0.0 1024392
02:00+19св66530 0.0 1023290
05:00+18всв68500 0.0 1023288
08:00+17всв67520 0.0 1023205
11:00+20в56470 0.0 1024324
14:00+21зюз11530 0.0 102315
17:00+21сз44540 0.0 1021126
20:00+21ссз44610 0.0 102134
9 октября, вс
вс923:00+20в611520 0.0 1021161
02:00+19в914520 0.0 1021448
05:00+18в914500 0.0 1021477
08:00+17в914490 0.0 1022449
11:00+20вюв1012480 0.0 1022522
14:00+22вюв912430 0.0 1020191
17:00+23вюв912410 0.0 1017131
20:00+22в1116420 0.0 1017277
10 октября, пн
пн1023:00+21вюв1218440 0.0 1017456
02:00+20вюв1118462 0.0 1016447
05:00+19вюв11184923 0.0 1015463
08:00+19вюв111850100 0.0 1014537
11:00+21юв11154599 0.0 1015433
14:00+22ююв6948100 0.0 101379
17:00+21зюз796464 0.0 1011127
20:00+20сз3479100 0.0 101255